Temp
23 23 23 22 26 25 23 25 24 24 23 22 22 24 22 20 22 23 18 18 20 20 19 19 19 19 20 20 19 20 20 20 20 20 20 20 20 19 19 18 18 18 19 18 19 19 19 19 18
23 23 23 22 25 26 24 23 24 23 23 22 22 22 22 21 20 20 19 19 20 20 19 20 19 20 20 20 20 20 20 20 19 19 19 19 19 18 18 18 18 18 18 18 17 17 18 18 17
23 23 25 22 22 24 24 23 23 22 21 23 22 22 21 21 20 20 19 19 20 20 20 20 20 20 20 20 20 19 19 19 18 18 18 18 18 18 18 18 19 18 18 17 17 17 17 17 17
23 23 21 25 23 22 24 23 23 23 22 22 22 22 21 20 20 19 19 19 19 20 20 19 20 20 20 19 20 19 19 18 18 17 17 17 17 17 17 17 17 17 17 16 17 17 17 17 16
22 22 24 23 23 23 23 23 22 23 23 22 22 21 21 20 20 20 19 19 20 20 19 19 20 20 20 20 20 20 20 19 19 19 19 18 17 17 17 16 16 16 16 16 16 16 16 16 16
24 22 24 24 24 24 23 23 23 23 22 21 22 21 21 18 19 19 19 19 20 20 20 20 19 20 20 20 20 20 19 19 18 18 18 18 17 17 17 17 18 17 17 16 16 16 15 15 15
23 23 22 22 23 24 24 22 24 23 22 23 22 22 20 19 18 19 19 19 19 20 20 19 20 20 20 20 20 19 19 18 18 18 17 17 17 17 17 17 16 16 16 16 16 16 16 15 15
21 23 22 22 23 24 23 23 23 24 23 20 21 23 21 21 18 18 18 18 19 19 19 19 19 20 19 19 19 19 19 18 18 18 18 18 17 17 17 16 16 16 16 16 15 15 15 15 14
19 23 22 23 23 24 22 24 23 22 22 22 22 22 21 21 18 17 17 17 17 18 19 20 20 19 19 18 18 18 18 18 18 18 17 17 17 17 17 17 16 16 16 16 15 15 15 14 14
23 23 22 22 22 24 23 23 24 24 23 23 22 20 18 19 18 18 19 19 18 18 20 20 19 19 19 19 18 18 18 18 18 17 17 17 16 16 16 16 16 15 15 15 15 15 15 15 14
22 24 22 22 23 23 23 24 23 23 24 24 25 22 20 19 19 19 20 20 20 19 19 19 19 19 19 19 18 18 18 18 18 17 17 17 16 16 16 16 16 15 15 15 15 14 14 14 14
24 22 23 23 22 22 24 23 23 23 25 23 23 22 20 20 20 20 20 20 19 19 19 19 19 19 19 18 18 18 18 18 17 17 17 17 16 16 16 16 16 15 15 14 14 14 14 14 14
24 23 22 23 21 23 22 23 24 23 24 22 21 20 21 21 21 20 20 19 18 19 19 19 19 19 19 19 19 18 17 17 17 17 17 17 16 16 16 16 16 15 15 15 14 14 14 14 14
23 22 22 22 23 22 23 23 23 24 22 22 21 22 21 21 21 19 19 20 19 20 20 19 19 19 19 19 18 18 18 17 17 17 17 16 16 16 16 16 16 16 15 14 14 14 14 14 14
21 23 22 22 21 23 21 24 24 23 22 22 21 21 21 21 20 20 20 20 19 20 19 19 20 19 19 19 18 18 18 18 17 17 17 17 17 16 16 16 16 16 15 14 13 13 13 13 13
22 22 23 22 22 22 23 24 25 22 22 23 21 20 20 20 19 19 19 20 20 20 19 19 19 20 19 19 18 18 18 17 17 17 17 17 17 16 16 16 16 16 15 14 13 12 12 13 13
21 23 22 22 20 21 22 23 24 21 20 21 21 20 20 20 19 20 20 20 20 20 19 19 19 19 19 18 18 18 18 18 18 18 17 17 17 17 16 16 16 16 15 14 14 13 13 12 12
21 21 21 21 21 21 21 22 21 19 18 19 19 19 19 20 21 18 19 20 20 19 19 19 19 19 19 18 18 18 18 18 18 18 18 17 16 16 16 16 15 15 14 14 14 13 12 12 12
21 20 20 20 20 21 20 20 21 19 19 19 18 19 20 20 17 17 18 19 19 19 19 20 20 19 18 17 17 17 17 17 18 17 17 16 16 15 15 15 14 14 13 14 14 12 11 11 11
20 20 20 20 19 20 20 21 20 19 18 17 18 19 19 19 18 16 16 17 18 19 18 17 17 16 16 16 15 15 15 16 16 16 16 16 16 15 14 14 13 12 11 11 12 11 11 10 10
20 20 20 20 19 19 19 22 21 20 19 19 18 18 19 20 20 18 17 16 16 16 16 16 15 15 15 15 15 15 15 15 14 14 14 15 14 14 14 14 13 12 10 10 10 10 10 12 11
20 19 19 18 19 21 18 22 21 19 20 19 19 19 19 19 19 18 17 15 14 15 15 15 14 14 14 14 14 13 12 12 12 11 11 12 13 13 13 13 13 11 9 9 9 9 9 9 11
20 17 17 18 18 19 20 21 21 19 20 19 19 19 19 17 17 16 14 13 12 13 14 14 14 14 13 13 13 12 11 10 10 10 10 11 11 12 12 12 12 11 9 7 7 7 7 7 9
18 18 17 17 18 19 18 19 19 19 18 19 20 19 17 17 16 14 13 13 13 14 14 14 14 14 13 13 13 12 11 11 10 10 10 10 9 9 10 10 9 8 6 4 4 4 4 4 4
18 18 19 19 18 19 17 18 18 17 17 18 18 17 15 14 14 14 14 13 13 13 14 14 13 12 12 12 11 11 11 10 9 9 9 8 8 7 7 6 5 4 3 3 3 3 3 2 2
18 17 17 18 17 17 16 18 18 17 17 17 16 14 14 14 13 14 13 13 13 12 12 12 11 11 12 12 12 11 10 9 8 8 7 6 6 6 6 4 4 4 5 5 4 3 2 1 1
18 17 16 14 8 14 17 17 17 16 17 16 15 15 14 14 14 14 14 13 13 12 11 12 12 12 12 11 10 10 9 9 7 7 7 7 6 5 4 5 5 5 5 4 4 4 3 1 0
18 17 17 15 16 16 18 16 19 17 17 16 15 15 14 14 15 15 15 13 12 12 12 12 12 11 10 10 9 8 7 6 6 6 6 5 4 4 5 4 5 5 4 4 3 3 2 1 1
17 17 15 15 14 15 13 17 16 17 16 16 16 14 14 15 15 15 14 13 12 12 11 11 10 9 9 8 8 7 7 6 6 5 4 4 4 4 4 4 4 3 2 3 4 3 3 2 2
16 16 15 15 15 13 13 15 16 16 15 15 15 14 14 14 14 14 13 12 11 11 11 10 9 8 8 8 7 6 5 5 5 4 3 4 3 3 3 3 2 1 3 2 3 2 2 2 2
Height
788 788 790 790 804 808 826 823 818 818 820 817 815 815 822 827 827 834 831 832 832 835 835 835 836 836 837 838 839 838 836 837 840 839 839 840 842 843 843 844 846 846 848 847 847 846 844 844 846
787 788 791 797 812 817 825 821 820 818 817 817 817 821 823 830 827 829 831 831 833 833 835 836 838 838 836 839 838 838 839 841 842 840 839 842 844 843 843 846 845 847 846 847 846 845 843 845 844
787 786 794 807 823 824 826 821 818 819 817 816 819 819 820 825 828 827 830 833 834 833 834 837 838 838 839 840 840 840 839 842 841 841 842 840 842 843 843 845 845 845 845 846 844 843 842 843 842
788 791 801 808 826 826 820 817 816 818 817 815 815 822 823 825 826 825 830 834 836 836 836 838 841 841 841 842 841 841 842 842 841 843 842 843 843 844 844 845 845 844 844 844 843 842 840 841 841
788 795 810 819 824 820 819 818 818 818 818 818 818 826 827 826 826 828 830 834 834 837 837 840 842 842 842 843 841 842 841 842 843 842 841 843 844 845 845 845 845 845 846 844 842 840 840 839 839
793 800 817 825 824 822 819 819 818 820 820 821 821 824 828 828 828 830 832 834 837 838 838 839 842 844 843 844 841 842 842 843 843 842 842 842 844 844 844 843 843 843 843 842 842 841 841 840 839
799 809 829 831 829 824 821 820 819 820 822 820 818 826 831 830 831 832 835 836 838 838 839 840 842 844 845 843 843 844 844 844 843 843 844 844 844 844 844 843 843 843 842 842 841 841 840 840 839
799 806 828 831 830 826 820 819 818 817 822 819 819 824 830 825 830 834 836 839 840 841 840 840 842 843 845 844 844 844 844 844 844 844 844 844 843 843 843 844 843 843 842 842 842 841 841 840 840
800 813 828 827 825 822 820 818 817 816 819 818 817 816 818 823 828 832 835 839 841 841 840 840 841 843 844 844 844 844 844 845 844 844 843 842 842 842 842 842 842 842 841 840 840 840 840 840 839
803 819 823 817 817 818 819 816 817 819 819 820 820 818 820 823 826 831 835 837 839 838 838 839 841 842 843 843 843 844 845 845 845 844 844 844 843 843 842 842 842 841 841 840 840 839 839 839 838
808 816 817 815 815 815 816 817 816 817 821 815 815 818 819 826 827 831 831 835 835 837 838 839 840 841 842 843 843 844 844 844 844 844 843 842 841 841 841 841 841 840 840 839 839 838 838 838 837
811 815 812 812 814 815 816 815 816 818 811 811 812 818 819 822 826 828 831 832 833 835 836 838 839 840 842 843 843 843 843 844 843 843 842 841 841 841 841 840 840 839 838 838 837 836 835 835 834
810 813 814 811 815 814 812 815 816 814 810 811 814 816 817 820 823 826 830 831 833 833 834 836 839 840 841 841 841 842 842 842 842 841 841 840 840 839 839 838 837 836 835 835 834 833 833 832 831
809 813 813 811 812 815 815 816 816 813 811 813 814 813 816 818 821 826 828 828 829 830 832 835 837 839 840 840 840 840 840 840 839 839 839 839 839 838 838 837 836 834 833 833 832 831 830 829 829
811 818 815 817 817 815 816 819 818 811 810 813 813 814 816 818 822 822 824 826 827 827 830 832 835 837 838 838 839 839 839 839 838 839 838 837 837 836 836 835 834 833 832 831 830 829 828 828 827
818 821 825 820 819 819 816 824 810 813 812 808 811 813 816 818 819 820 822 823 824 825 827 830 832 834 836 837 838 838 838 838 838 837 837 836 835 834 833 832 831 831 830 829 828 827 826 825 824
827 835 835 829 828 825 823 824 810 813 813 809 810 810 812 814 817 819 820 820 821 822 824 827 831 833 835 835 836 836 836 835 835 834 834 833 832 831 830 828 826 826 825 824 824 823 822 820 819
839 839 839 837 828 825 828 823 818 816 815 813 811 810 812 812 814 817 818 817 818 820 823 827 829 831 833 832 833 833 833 832 833 832 831 830 828 827 825 822 821 821 820 818 817 816 816 816 815
833 838 840 834 832 829 831 828 820 818 815 814 813 811 811 813 817 817 816 816 818 820 823 825 828 830 832 832 832 832 831 831 830 829 829 827 825 823 820 817 815 814 813 812 812 811 811 809 810
832 837 836 832 831 829 828 824 824 820 823 822 818 816 816 817 819 819 819 820 821 822 825 829 830 832 833 833 833 833 831 828 826 826 825 823 820 817 814 812 809 807 805 804 803 804 804 804 804
835 835 838 839 833 832 831 826 825 823 823 822 821 822 821 820 821 823 824 825 825 827 830 831 832 833 833 832 832 832 829 826 825 824 821 819 816 814 810 806 803 801 800 797 795 795 795 795 797
839 834 836 839 839 835 838 833 829 833 827 826 825 824 825 826 826 827 829 829 830 831 832 832 833 833 833 832 831 829 829 828 826 822 819 815 812 809 806 802 799 796 794 792 790 790 789 790 789
836 837 837 837 838 839 836 834 832 834 833 832 831 829 827 830 832 832 833 834 834 834 834 834 833 833 833 832 830 827 825 825 823 821 815 810 806 803 799 795 791 788 786 785 784 785 784 784 785
834 836 839 842 842 844 848 845 845 840 843 836 831 829 832 832 834 835 837 836 836 835 833 833 832 832 831 829 827 824 822 819 819 816 812 807 803 799 796 791 787 783 783 783 784 785 786 787 787
834 840 844 845 848 845 850 847 847 847 843 840 837 836 839 839 837 837 837 837 837 835 834 833 831 829 828 825 825 823 820 819 817 814 812 807 800 796 790 789 787 784 782 783 785 787 787 788 788
844 847 855 861 860 856 854 850 848 845 842 839 840 843 842 842 841 840 840 839 838 836 834 832 830 828 825 824 821 823 823 820 817 811 807 801 797 794 790 788 788 789 787 786 786 785 785 787 787
844 853 857 872 909 873 855 849 846 844 841 842 841 841 842 843 842 840 839 837 836 834 833 832 829 829 826 824 822 821 819 815 810 805 800 793 790 790 790 790 791 790 788 787 786 783 781 781 782
843 852 856 863 871 870 852 854 839 844 844 843 842 844 843 842 839 837 836 835 834 833 831 829 827 826 824 822 820 818 815 811 806 800 793 788 787 789 790 791 791 789 788 787 785 783 782 781 781
853 857 864 866 874 874 883 850 839 840 843 841 842 844 842 840 839 837 836 834 832 830 829 826 824 823 820 818 816 813 808 803 799 794 791 789 790 790 789 789 789 788 787 787 784 782 780 779 779
855 859 863 868 874 876 879 856 836 838 840 840 839 841 840 838 836 835 833 831 830 829 828 825 822 819 817 814 810 807 804 801 797 793 790 789 790 790 789 786 786 787 786 783 780 779 778 777 776
Wind_Speed
5 3 3 4 2 4 3 2 2 4 2 2 3 4 7 4 1 3 4 8 7 8 10 10 8 7 7 8 9 7 7 7 6 8 9 9 10 10 9 8 6 3 2 5 8 7 5 6 3
2 4 3 2 4 8 3 2 3 3 8 5 7 5 3 4 2 6 7 11 9 10 11 10 10 9 8 8 8 8 6 5 5 5 7 8 8 8 7 6 3 5 8 10 9 5 4 5 3
3 4 2 4 3 5 5 1 8 6 3 1 4 4 3 4 4 11 6 13 12 13 12 12 11 10 8 7 7 6 6 5 4 3 3 4 6 8 7 6 9 11 12 9 6 3 4 3 4
2 3 3 6 7 2 3 7 6 6 3 3 5 7 3 2 8 7 18 14 11 12 13 11 10 9 8 7 7 6 5 5 5 3 4 1 1 3 3 4 6 6 5 3 4 4 5 6 7
6 3 5 7 6 3 2 3 4 2 2 3 1 4 3 1 5 16 16 15 14 14 13 12 9 8 7 6 6 5 5 5 3 3 3 2 1 3 3 3 3 2 3 5 6 5 5 6 7
3 2 6 9 6 3 3 2 2 3 3 4 5 4 2 1 14 18 16 14 14 14 13 12 9 7 6 4 6 4 4 4 4 4 2 0 1 1 1 1 1 2 3 4 6 6 7 6 5
5 4 3 5 5 3 2 2 5 4 4 3 7 4 2 5 12 17 14 14 14 14 13 11 9 6 4 4 4 3 3 2 3 3 2 1 2 2 3 3 3 3 5 5 5 5 4 4 4
4 4 4 1 4 3 1 2 3 2 2 3 2 5 6 11 17 16 12 12 13 13 12 10 7 5 3 3 3 3 3 2 2 2 2 3 4 5 4 4 4 5 6 7 6 5 5 4 5
2 4 3 4 5 3 0 3 1 1 4 1 2 4 1 20 19 15 10 10 11 12 10 10 8 5 3 3 2 2 1 0 2 3 4 4 4 4 5 5 5 6 6 7 8 8 6 5 6
4 3 3 2 3 3 2 2 2 3 2 2 2 2 6 21 21 18 15 14 14 14 14 12 10 7 4 3 3 2 2 2 3 5 6 5 5 7 7 8 9 9 9 9 9 9 9 9 7
2 4 4 2 3 3 2 2 1 6 1 4 6 8 14 19 18 18 17 17 18 15 15 15 11 9 7 6 6 6 5 5 5 6 7 8 8 9 9 10 11 10 10 10 10 10 9 9 9
6 2 3 4 4 3 3 2 1 4 3 3 3 12 17 15 18 18 18 20 16 18 18 16 13 11 9 8 8 9 9 8 8 9 9 10 11 10 11 12 12 12 12 11 11 11 11 10 9
5 2 2 2 6 2 4 2 1 6 8 2 5 13 15 16 18 19 20 16 15 18 17 16 14 12 9 7 8 9 10 10 10 11 12 12 12 13 13 14 14 14 14 13 12 11 12 11 8
2 3 2 4 2 2 1 1 0 1 2 5 7 12 14 16 20 14 15 17 19 20 18 17 15 11 8 6 7 7 9 10 11 11 12 13 14 16 17 17 17 17 16 15 15 13 12 11 10
2 4 2 9 5 3 2 2 3 4 2 3 6 8 12 15 13 18 14 16 17 20 18 18 16 11 9 8 7 6 7 9 10 11 12 13 14 16 18 19 19 19 18 18 17 16 14 13 12
5 4 4 4 7 3 1 5 6 5 5 8 5 7 10 12 12 10 12 13 16 19 19 19 17 12 10 9 8 8 9 9 11 12 14 14 15 17 19 21 22 21 20 20 19 17 16 15 13
8 3 3 4 3 5 5 5 5 12 9 11 5 5 8 10 9 6 7 9 10 14 18 19 16 13 11 10 9 8 9 9 10 13 15 17 17 19 22 24 25 24 23 24 22 20 20 16 15
0 1 1 3 5 6 3 7 11 11 4 4 4 1 5 6 2 5 8 7 8 11 14 15 14 13 12 11 9 10 9 10 12 14 17 19 21 22 24 27 30 29 28 28 27 25 22 22 18
3 2 3 3 2 5 3 6 8 10 9 9 6 5 6 5 4 2 1 4 8 10 13 14 14 11 10 8 8 8 8 12 15 18 22 23 24 24 26 28 30 30 30 33 32 28 24 21 21
1 2 1 3 1 1 5 5 4 10 7 5 6 7 6 5 3 3 3 4 6 6 6 6 3 4 6 9 10 12 16 15 18 20 23 24 26 28 27 25 26 27 25 28 34 30 24 20 20
1 2 2 3 7 1 4 2 7 5 6 7 7 5 3 5 5 3 5 6 9 7 5 5 6 7 8 8 10 11 11 13 14 18 23 25 22 21 24 24 24 25 24 26 29 29 29 28 21
3 2 4 4 1 1 4 3 5 6 4 5 3 4 5 6 7 10 10 11 9 8 8 9 13 14 13 12 12 13 11 12 14 17 20 26 26 27 27 27 26 25 22 23 23 23 25 24 26
3 2 1 1 3 2 5 1 4 4 6 6 8 5 5 7 7 9 11 11 14 16 17 14 13 15 15 16 16 14 12 11 17 22 26 28 27 28 27 25 25 23 19 17 15 15 13 15 22
4 2 3 3 2 1 1 2 4 5 5 5 5 10 8 8 7 7 9 11 12 13 13 13 14 14 17 17 15 14 14 19 21 25 29 31 29 29 28 22 17 13 6 4 9 10 10 7 6
8 3 1 2 2 1 2 1 4 9 8 6 8 9 10 9 8 8 10 9 9 12 13 14 16 16 19 18 19 20 21 23 24 28 29 29 28 21 18 11 4 6 12 12 10 9 8 10 9
4 2 2 1 2 4 2 4 6 8 7 8 8 7 7 8 6 6 3 1 5 9 13 16 16 16 19 21 20 19 20 24 28 26 28 26 23 16 6 3 6 7 5 5 6 8 9 8 9
1 5 1 5 1 1 3 1 3 7 9 8 7 8 8 6 4 2 3 6 8 13 16 18 20 19 17 19 18 18 21 26 26 28 28 25 19 6 5 5 1 1 5 7 10 7 3 1 3
3 4 1 3 2 2 4 4 3 3 5 5 5 4 5 5 6 7 11 13 12 13 16 18 15 15 15 17 14 17 22 23 25 27 24 15 5 6 4 5 4 6 7 8 5 4 3 4 6
2 2 5 4 1 1 3 5 4 6 0 5 3 1 3 6 7 9 13 16 15 14 15 16 15 15 15 15 16 22 24 24 24 19 13 5 4 2 2 3 7 10 11 13 12 8 6 6 8
2 3 3 2 2 1 1 7 2 7 2 5 4 1 4 7 9 11 14 14 13 12 17 18 16 15 17 15 20 19 17 18 16 8 4 2 3 3 4 6 12 12 14 12 13 11 9 9 11
Wind_Direction
3 86 121 43 111 93 97 89 294 116 107 40 98 132 109 41 53 93 97 169 131 144 142 137 126 116 108 117 132 134 131 146 146 148 148 162 170 169 182 193 208 198 285 333 339 335 333 301 296
28 125 74 84 98 107 83 314 143 84 125 112 97 123 87 84 101 134 139 153 151 141 137 138 143 134 122 122 121 122 126 135 156 145 144 158 166 176 193 207 218 260 292 317 335 340 325 301 308
110 101 88 90 84 98 107 95 127 131 136 99 113 52 99 107 121 147 176 154 148 144 143 148 145 140 127 117 111 108 112 128 133 124 155 168 184 191 211 240 265 277 286 292 299 316 338 299 291
137 56 62 86 88 54 101 153 152 144 116 77 120 91 88 349 155 174 156 155 150 144 143 141 127 118 113 101 92 85 83 78 72 74 58 38 283 268 265 269 270 293 297 282 295 300 291 292 301
48 63 70 87 78 82 73 150 157 138 90 81 43 110 69 22 169 154 157 164 160 150 141 132 126 120 100 83 75 67 68 72 71 64 57 30 299 290 297 312 324 330 313 326 333 337 316 307 296
69 78 98 100 100 86 91 109 158 101 95 131 104 96 58 98 146 157 163 164 162 149 144 137 133 113 99 87 60 45 34 34 37 39 45 64 232 249 254 273 280 280 308 316 333 343 350 8 22
101 83 99 115 116 101 150 306 141 137 148 176 133 93 107 175 164 164 166 170 167 155 152 146 135 126 113 94 75 56 45 41 30 17 5 355 344 349 1 6 11 352 346 348 352 350 348 355 19
102 86 111 118 156 133 167 144 146 146 103 119 208 147 164 189 172 168 169 176 175 173 164 155 156 154 150 122 111 88 71 53 36 3 326 322 324 325 328 331 339 338 336 335 335 334 336 338 333
126 80 114 157 159 138 327 144 54 117 126 209 195 160 166 162 164 162 166 179 186 190 180 179 182 186 191 176 145 108 94 128 346 339 327 314 312 316 324 327 326 326 323 316 311 310 311 308 311
70 84 149 184 144 114 103 91 150 159 124 167 206 88 132 153 164 170 182 187 195 196 196 198 198 208 228 236 237 228 250 272 319 329 329 319 312 311 313 317 317 317 316 309 303 303 303 304 301
70 107 163 172 171 159 99 109 158 135 241 211 185 158 152 164 175 186 192 204 203 205 210 212 208 218 234 242 249 250 259 272 292 304 310 311 309 301 298 302 303 303 302 304 304 303 301 303 307
93 111 149 153 162 124 151 154 143 212 222 329 173 162 164 174 186 195 205 214 212 213 217 218 219 226 239 247 254 252 253 268 286 296 292 299 304 301 300 302 301 299 299 299 300 304 305 304 302
76 158 153 116 159 164 135 197 227 247 261 282 155 169 179 184 191 204 215 221 222 227 227 225 228 229 239 248 258 265 256 262 274 280 280 285 290 292 294 294 293 293 292 291 290 290 295 299 300
111 77 55 32 82 15 320 342 305 126 44 155 178 191 190 195 196 200 211 223 227 230 232 225 223 227 235 249 262 258 258 263 272 279 281 280 283 288 291 292 292 292 290 286 285 283 281 284 285
99 81 92 33 356 37 315 244 222 308 332 124 197 211 207 211 203 211 216 227 233 232 226 216 217 221 235 245 255 263 265 269 274 281 280 278 280 285 289 289 288 288 288 284 279 277 272 273 274
46 53 30 21 9 350 14 291 301 16 342 290 323 224 210 213 223 233 234 242 245 241 227 213 211 213 227 242 257 267 273 277 284 292 288 284 284 281 283 283 284 287 287 281 275 268 266 267 261
26 75 12 324 61 355 40 281 304 334 305 285 289 257 209 211 226 235 252 251 247 235 209 204 209 216 228 237 250 262 269 282 289 290 290 288 289 288 281 281 281 279 277 273 267 262 260 259 255
118 80 279 283 357 352 346 294 324 345 348 315 340 43 176 187 207 306 297 253 226 205 198 205 208 221 236 242 252 262 275 291 298 306 305 302 294 290 284 281 278 274 268 264 260 253 253 252 253
150 173 246 256 172 329 324 306 344 358 33 43 57 101 131 114 16 8 53 178 193 191 197 203 212 228 245 259 284 303 316 322 319 318 316 316 313 308 298 288 284 279 267 263 261 256 248 242 243
135 211 286 254 320 328 353 2 345 28 37 37 66 77 96 108 85 42 90 125 163 182 190 205 241 295 315 314 310 312 311 314 321 322 321 320 316 313 310 302 293 284 273 265 258 250 245 247 230
353 104 26 298 333 80 336 82 18 26 50 44 48 68 98 119 119 127 67 57 47 40 8 349 351 358 11 8 358 346 339 332 329 329 326 324 324 322 316 311 303 294 280 269 260 253 245 245 242
2 73 308 269 238 230 350 135 28 356 43 25 33 49 29 17 11 16 15 27 21 30 41 61 75 62 39 19 7 1 350 337 331 331 328 328 327 325 319 312 308 299 288 276 274 266 256 250 250
264 358 268 197 156 143 9 110 12 18 36 360 7 354 3 18 25 37 54 65 70 70 66 58 45 28 13 6 6 5 5 352 341 336 333 330 326 321 316 312 307 300 289 281 275 266 264 261 253
315 54 53 71 99 135 334 335 49 13 341 360 24 18 9 6 15 51 73 74 60 47 39 26 14 5 1 356 352 354 358 354 339 337 335 331 326 320 316 313 309 311 313 78 81 75 65 58 72
19 39 355 15 20 219 46 50 67 66 37 20 352 3 9 13 44 65 68 56 32 20 13 5 355 353 356 0 356 350 348 343 339 334 325 318 316 311 313 320 346 100 107 99 91 64 36 22 27
10 43 93 270 328 316 339 155 147 107 39 21 49 58 54 56 55 64 81 21 359 0 4 0 359 349 350 349 346 336 334 334 326 322 316 313 310 303 300 124 106 105 75 30 344 1 5 9 8
26 49 124 104 74 280 317 192 243 236 33 37 37 35 32 30 40 37 308 302 332 360 2 357 352 345 343 339 330 321 322 325 318 317 315 310 309 254 147 114 90 258 340 320 308 303 309 90 196
67 123 33 33 21 308 307 264 235 184 10 11 27 27 5 346 335 328 327 327 331 336 346 341 331 325 326 325 317 318 323 325 323 320 318 315 284 178 175 324 350 360 352 341 324 312 268 237 249
17 52 64 105 94 180 292 272 203 188 128 2 318 211 355 330 318 308 313 319 315 308 322 325 319 321 324 327 328 328 326 329 332 330 335 348 139 261 305 26 32 3 348 328 313 298 288 263 262
121 131 96 119 215 189 233 271 201 202 268 328 321 244 304 291 303 305 309 323 327 326 334 336 334 336 337 331 323 324 335 344 345 356 39 90 13 41 47 26 352 335 312 315 320 322 314 305 300